Maxwell AFB, AL

8:28 AM CDT on August 15, 2018 (GMT -0500)
Maxwell Air Force Base

Weather History for KMXF - February, 2018

Change the Weather History Date:

Wednesday, February 14, 2018

  Actual Average Record
Temperature  
Mean Temperature 62 °F -  
Max Temperature 68 °F 61 °F 78 °F (2001)
Min Temperature 55 °F 41 °F 25 °F (2008)
Degree Days  
Heating Degree Days 4    
Growing Degree Days 12 (Base 50)    
Moisture  
Dew Point 55 °F    
Average Humidity 86    
Maximum Humidity 94    
Minimum Humidity 73    
Precipitation  
Precipitation 0.00 in - - ()
Sea Level Pressure  
Sea Level Pressure 30.40 in    
Wind  
Wind Speed 7 mph (SE)    
Max Wind Speed 12 mph    
Max Gust Speed -    
Visibility 10 miles    
Events      
Averages and records for this station are not official NWS values.
T = Trace of Precipitation, MM = Missing Value Source: NWS Daily Summary

Daily Weather History Graph

Daily Weather History Graph

Search for Another Location

Airport or City:

Astronomy

Feb. 14, 2018 Rise Set
Actual Time 6:29 AM CST 5:30 PM CST
Civil Twilight 6:03 AM CST 5:55 PM CST
Nautical Twilight 5:35 AM CST 6:24 PM CST
Astronomical Twilight 5:06 AM CST 6:53 PM CST
Moon 5:43 AM CST (2/14) 4:35 PM CST (2/14)
Length of Visible Light 11h 51m
Length of Day
11h 01m
Waning Crescent, 1% of the Moon is Illuminated
Feb 14
Waning Crescent
Feb 15
New
Feb 23
First Quarter
Mar 1
Full
Mar 9
Last Quarter

Hourly Weather History & Observations

Time (CST) Temp. Dew Point Humidity Pressure Visibility Wind Dir Wind Speed Gust Speed Precip Events Conditions
12:56 AM 57.9 °F 53.8 °F 86% 30.46 in 10.0 mi ESE 11.5 mph - N/A   Overcast
1:11 AM 57.2 °F 53.6 °F 88% 30.46 in 10.0 mi ESE 10.4 mph - N/A   Overcast
1:56 AM 57.6 °F 53.4 °F 86% 30.46 in 10.0 mi ESE 9.2 mph - N/A   Overcast
2:41 AM 57.2 °F 53.6 °F 88% 30.44 in 10.0 mi East 10.4 mph - N/A   Overcast
2:56 AM 57.0 °F 53.4 °F 88% 30.44 in 10.0 mi ESE 9.2 mph - N/A   Overcast
3:56 AM 56.5 °F 52.9 °F 88% 30.42 in 10.0 mi ESE 8.1 mph - N/A   Overcast
4:56 AM 56.5 °F 52.9 °F 88% 30.42 in 10.0 mi East 8.1 mph - N/A   Overcast
5:56 AM 56.1 °F 52.5 °F 88% 30.44 in 10.0 mi ESE 9.2 mph - N/A   Overcast
6:56 AM 55.8 °F 52.5 °F 89% 30.46 in 10.0 mi ESE 6.9 mph - N/A   Overcast
7:11 AM 55.4 °F 51.8 °F 88% 30.46 in 10.0 mi ESE 4.6 mph - N/A   Overcast
7:56 AM 55.9 °F 52.7 °F 89% 30.47 in 10.0 mi SE 5.8 mph - N/A   Overcast
8:41 AM 57.2 °F 53.6 °F 88% 30.47 in 10.0 mi ESE 6.9 mph - N/A   Overcast
8:56 AM 56.7 °F 53.1 °F 88% 30.47 in 10.0 mi SE 6.9 mph - N/A   Overcast
9:26 AM 57.2 °F 53.6 °F 88% 30.48 in 10.0 mi East 3.5 mph - N/A   Overcast
9:56 AM 57.2 °F 53.4 °F 87% 30.47 in 10.0 mi East 5.8 mph - N/A   Overcast
10:41 AM 59.0 °F 53.6 °F 82% 30.46 in 10.0 mi ESE 5.8 mph - N/A   Overcast
10:56 AM 58.8 °F 53.6 °F 83% 30.45 in 10.0 mi ESE 4.6 mph - N/A   Overcast
11:11 AM 59.0 °F 53.6 °F 82% 30.45 in 10.0 mi ESE 5.8 mph - N/A   Overcast
11:56 AM 60.8 °F 54.5 °F 80% 30.43 in 10.0 mi SE 8.1 mph - N/A   Overcast
12:56 PM 62.4 °F 55.4 °F 78% 30.39 in 10.0 mi SE 5.8 mph - N/A   Overcast
1:56 PM 64.0 °F 56.7 °F 77% 30.35 in 10.0 mi SSE 5.8 mph - N/A   Overcast
2:56 PM 65.5 °F 57.7 °F 76% 30.34 in 10.0 mi SE 5.8 mph - N/A   Overcast
3:56 PM 68.2 °F 59.2 °F 73% 30.32 in 10.0 mi SE 9.2 mph - N/A   Overcast
4:56 PM 67.3 °F 59.4 °F 76% 30.33 in 10.0 mi SW 3.5 mph - N/A   Overcast
5:56 PM 65.1 °F 59.5 °F 82% 30.32 in 10.0 mi SSE 3.5 mph - N/A   Overcast
6:56 PM 64.0 °F 59.0 °F 84% 30.32 in 10.0 mi SSE 4.6 mph - N/A   Overcast
7:56 PM 63.7 °F 59.0 °F 85% 30.31 in 10.0 mi SSE 8.1 mph - N/A   Overcast
8:56 PM 62.6 °F 58.6 °F 87% 30.32 in 10.0 mi SE 3.5 mph - N/A   Overcast
9:56 PM 60.8 °F 58.5 °F 92% 30.32 in 10.0 mi Calm Calm - N/A   Overcast
10:41 PM 60.8 °F 59.0 °F 94% 30.31 in 10.0 mi Calm Calm - N/A   Overcast
10:56 PM 60.4 °F 58.5 °F 93% 30.31 in 10.0 mi Calm Calm - N/A   Overcast
11:26 PM 60.8 °F 59.0 °F 94% 30.30 in 10.0 mi SSE 4.6 mph - N/A   Overcast
11:56 PM 61.9 °F 59.2 °F 91% 30.30 in 10.0 mi Calm Calm - N/A   Overcast